Temperature
18 18 18 18 18 18 18 18 18 18 18 18 18 18 18 18 18 18 18 18 18 18 18 18 18 18 18 18 18 18 18 18 18 17 17 17 17 17 17 17 16 16 17
18 18 18 18 18 18 18 18 18 18 18 18 18 18 18 18 18 18 18 18 18 18 18 18 18 18 18 18 18 18 18 17 17 17 17 17 17 17 17 17 16 16 17
18 18 18 18 18 18 18 18 18 18 18 18 18 18 18 18 18 18 18 18 18 18 18 18 18 18 18 18 18 18 18 17 17 17 17 16 16 17 17 17 17 17 17
18 18 18 18 18 18 18 18 18 18 18 18 18 18 18 18 18 18 18 18 18 18 18 18 18 18 18 18 18 18 17 17 17 17 17 17 16 17 17 17 17 17 17
18 18 18 18 18 18 18 18 18 18 18 18 18 18 18 18 18 18 18 18 18 18 18 18 18 18 18 18 18 18 18 17 17 17 17 16 16 17 17 17 17 17 17
19 18 18 18 18 18 18 18 18 18 18 18 18 18 18 18 18 18 18 18 18 18 18 18 18 18 17 17 18 18 18 17 17 17 16 16 16 17 17 17 17 17 16
19 18 17 18 18 18 18 18 18 18 18 18 18 18 18 18 18 18 18 18 18 18 18 18 17 17 17 17 17 17 17 17 17 17 16 16 16 17 17 17 17 16 16
19 18 18 18 18 18 18 18 18 18 18 18 18 18 18 18 18 18 18 18 18 18 17 17 17 17 17 17 17 17 17 17 17 17 16 16 17 17 17 17 17 17 17
19 18 18 18 18 18 18 18 18 18 18 18 18 18 18 18 18 18 18 18 17 17 17 17 17 17 17 17 17 17 17 17 17 17 17 16 17 17 17 17 17 17 17
18 18 18 18 17 17 18 18 18 18 18 18 18 18 18 18 17 17 17 18 17 17 17 17 17 17 17 17 17 17 17 17 17 17 17 17 17 17 17 17 17 17 17
18 18 18 18 18 18 17 17 18 18 18 18 18 18 17 17 17 17 17 18 17 17 17 17 17 17 17 17 17 17 17 17 17 17 17 17 17 17 17 17 17 17 17
18 18 18 18 18 18 17 17 17 17 17 17 17 17 17 17 17 17 18 18 18 18 17 17 17 17 17 17 17 17 17 17 17 17 17 17 17 17 17 17 17 17 17
18 18 18 18 18 18 18 18 18 17 17 17 17 17 17 17 17 17 17 17 17 17 17 17 17 17 17 17 17 17 17 17 18 17 17 17 17 17 17 17 17 17 17
19 19 18 18 18 18 18 18 18 18 18 18 17 17 17 17 17 17 17 17 17 17 17 17 17 17 17 17 17 17 17 17 17 17 17 17 17 17 17 17 17 17 17
19 19 18 18 18 18 18 18 18 18 18 18 17 17 17 17 17 17 17 17 17 17 17 17 17 17 17 17 17 17 17 17 17 17 17 17 17 17 17 17 17 17 17
19 19 19 19 18 18 18 18 18 18 18 18 18 17 17 17 17 17 17 17 17 17 17 17 17 17 17 17 17 17 17 17 17 17 17 17 17 17 17 17 17 17 17
20 19 19 19 19 19 18 18 18 18 18 18 18 17 17 17 17 17 17 17 17 17 17 17 17 17 17 17 17 17 17 17 17 17 17 17 17 17 17 17 17 17 17
20 19 19 19 19 19 19 18 18 18 18 18 18 18 17 17 17 18 17 17 17 17 17 17 17 17 17 17 17 17 17 17 17 17 17 17 17 17 17 17 17 17 17
20 20 19 19 19 19 19 18 18 18 18 18 18 18 18 18 17 17 18 18 17 17 17 17 17 17 17 17 17 17 17 17 17 17 17 17 17 17 17 17 17 17 17
20 20 20 19 19 19 18 18 18 18 18 18 18 18 18 18 18 18 17 18 17 17 17 17 17 17 17 17 18 18 18 18 17 17 17 17 17 17 17 17 17 17 17
20 20 20 19 19 19 19 18 18 18 18 18 18 18 18 18 18 18 18 18 18 17 17 17 17 17 17 17 17 18 18 18 18 17 17 17 18 17 17 17 17 17 16
20 20 20 20 20 19 19 19 18 18 18 18 18 18 18 18 18 18 18 18 18 18 17 17 17 17 18 17 18 18 19 19 18 18 18 17 17 17 17 17 17 17 17
21 20 20 20 20 20 19 19 18 18 18 18 18 18 18 18 18 18 18 18 18 18 18 18 17 17 17 17 17 18 18 19 19 18 18 18 17 17 17 17 17 16 16
21 21 21 21 20 20 20 19 18 18 19 18 18 18 18 18 18 18 18 18 18 18 18 18 17 17 17 17 17 17 17 17 18 18 18 18 17 17 17 17 17 16 16
22 21 21 21 21 20 20 19 19 19 19 18 18 18 18 18 18 18 18 18 18 18 18 18 18 17 17 17 17 17 17 17 17 17 18 17 17 17 17 16 16 16 16
22 21 21 21 21 21 20 20 20 19 19 19 18 18 18 18 18 18 18 18 18 18 18 18 18 17 17 17 17 17 17 17 17 17 17 17 17 17 16 16 16 16 16
Wind_Speed
8 11 14 14 15 15 16 17 17 17 17 18 18 18 18 18 18 19 19 19 19 19 19 19 19 19 19 18 18 18 18 18 18 17 17 17 16 16 15 14 15 18 17
10 13 14 14 15 15 16 16 17 17 17 17 18 18 18 18 18 18 18 18 18 19 19 19 19 19 19 18 18 18 17 17 17 17 17 17 16 15 13 12 14 17 16
11 13 14 14 15 15 15 16 17 17 17 17 17 18 17 17 17 18 18 18 18 18 18 18 18 18 18 18 17 17 16 16 15 13 12 15 16 14 15 16 17 16 15
11 12 14 14 14 15 15 16 16 17 17 17 17 17 17 17 17 17 17 17 17 18 18 17 17 17 17 17 16 16 15 14 11 7 10 13 15 15 14 15 15 15 15
11 13 15 13 14 15 15 15 16 16 16 16 16 16 16 16 17 16 16 16 17 17 17 16 16 16 16 15 15 14 14 11 7 6 12 12 13 14 14 14 14 14 14
11 13 15 13 14 14 14 15 15 15 15 15 15 15 16 16 16 16 16 16 16 16 16 15 15 15 14 14 14 13 12 8 6 11 11 11 13 13 13 13 13 13 13
11 13 15 13 13 13 14 14 14 14 14 15 14 15 15 15 15 15 15 15 15 15 15 14 14 14 13 12 12 11 9 3 7 10 10 11 13 12 12 12 12 12 12
11 12 14 13 12 13 13 13 13 14 14 14 13 14 14 14 14 14 14 14 14 14 14 13 13 12 12 11 11 10 7 2 8 9 10 11 12 11 11 11 11 11 10
10 11 11 13 12 12 12 12 13 13 13 13 13 13 13 13 13 13 13 13 13 12 12 12 12 11 11 10 9 8 5 1 4 8 9 10 12 10 10 10 10 9 9
9 9 9 9 10 11 12 12 12 12 12 12 11 12 12 13 12 12 12 12 11 11 11 10 10 10 10 9 8 7 4 4 6 8 8 11 11 9 9 9 8 8 8
8 7 8 9 8 9 11 12 11 11 10 11 10 9 7 9 10 10 12 11 10 10 9 9 9 8 8 9 8 5 5 2 6 6 8 12 9 8 8 7 7 7 7
9 8 7 7 7 8 8 8 7 8 8 7 7 7 7 7 7 9 12 9 9 8 8 8 7 7 6 7 8 7 3 4 5 5 8 10 8 7 7 7 7 7 7
9 8 7 6 5 6 6 6 5 5 6 7 7 6 6 5 6 7 7 8 7 6 6 7 6 3 3 3 2 2 3 2 3 4 8 9 7 7 7 7 7 7 7
9 8 7 7 6 4 4 5 5 5 5 5 6 4 5 4 4 5 4 5 4 4 3 3 3 3 2 1 1 1 1 0 2 3 7 8 6 7 7 7 7 7 8
8 8 8 7 6 5 4 3 4 3 4 5 4 4 3 4 4 4 3 2 2 3 4 2 2 2 1 1 1 1 0 0 1 1 5 8 7 7 7 7 8 8 9
9 9 8 8 7 6 5 4 3 3 3 3 4 4 3 3 3 3 3 2 2 2 1 1 1 1 1 1 1 1 2 2 2 2 2 6 9 8 8 7 8 8 9
9 9 8 8 8 7 6 5 4 4 4 3 3 4 3 3 2 2 2 2 2 2 2 2 1 2 2 2 2 2 3 3 2 3 3 3 6 10 10 9 8 9 9
9 9 9 8 8 8 6 5 4 4 3 3 3 4 4 3 3 2 2 2 2 2 2 2 3 2 2 2 2 3 2 3 4 4 4 4 4 4 9 10 10 9 9
10 10 10 8 8 7 6 5 4 3 3 4 4 4 4 5 4 4 3 1 3 3 2 3 2 3 3 3 3 3 4 4 3 4 4 5 5 5 5 8 11 10 10
11 10 10 10 8 7 6 5 4 4 4 4 4 4 5 5 5 5 4 3 4 3 3 3 3 3 4 4 5 3 4 4 4 4 5 5 5 6 6 6 8 10 11
11 11 11 10 10 8 6 6 6 5 5 4 5 6 6 6 5 5 4 3 4 4 4 4 4 5 4 3 4 4 5 5 5 5 5 5 4 5 5 5 6 6 7
12 12 11 11 11 10 7 5 5 4 5 5 5 5 7 6 6 6 5 5 4 4 5 5 5 5 4 3 4 4 4 3 4 4 4 4 4 4 4 5 4 4 5
13 13 12 12 11 11 9 7 5 5 5 5 5 5 6 7 7 6 6 6 5 5 5 5 5 6 5 4 4 4 4 3 2 2 3 3 3 3 4 3 4 5 5
13 13 12 12 11 10 10 9 8 7 6 6 5 4 5 7 7 7 6 6 6 6 5 6 5 5 6 5 4 4 5 4 4 3 3 3 3 3 3 3 3 3 4
13 12 12 11 11 11 10 10 9 8 6 5 5 5 5 5 6 6 6 5 5 5 5 5 5 6 5 5 4 4 4 4 6 5 4 3 2 1 2 3 3 3 3
12 11 11 11 11 10 11 10 9 8 7 6 6 5 5 4 5 6 6 5 5 5 5 6 6 6 5 5 5 5 4 4 4 4 5 5 3 2 1 1 2 2 2
Wind_Direction
91 87 92 98 98 97 97 96 97 99 99 99 98 97 97 97 97 97 97 98 98 99 100 100 100 100 101 101 101 101 102 103 103 104 102 100 101 104 107 114 117 104 107
101 98 97 97 97 97 98 98 98 100 100 99 99 99 98 98 97 97 97 99 100 100 99 99 99 98 99 100 100 101 102 104 105 107 111 107 102 102 102 94 86 103 109
105 106 107 97 98 98 98 99 99 99 99 99 99 99 99 98 97 98 98 98 100 100 99 98 98 99 99 100 101 101 102 103 107 118 133 112 104 100 99 97 100 108 109
110 109 104 102 99 98 98 98 98 98 97 97 98 99 100 100 98 98 98 98 100 101 101 100 101 101 101 101 101 101 101 103 113 145 112 101 105 102 104 106 109 110 110
112 109 106 105 101 99 97 96 96 96 96 96 97 98 99 100 99 99 99 100 100 101 101 101 102 103 104 104 103 102 103 105 125 114 92 97 101 106 107 109 110 112 111
119 113 109 109 105 103 101 99 99 98 98 97 96 97 98 98 100 100 100 100 100 100 101 102 102 105 106 107 107 105 107 125 155 96 99 102 103 111 112 113 113 114 114
119 115 114 111 108 106 104 102 102 101 100 98 97 98 99 99 99 99 100 100 100 100 101 100 100 104 106 107 109 109 112 126 94 97 99 97 101 112 113 113 115 115 115
120 116 117 114 110 108 106 104 102 101 100 100 100 101 102 102 101 101 100 100 101 101 101 100 99 100 102 104 108 113 125 181 109 101 100 100 105 116 116 117 119 119 119
122 120 124 126 123 116 109 106 104 103 103 103 102 103 104 104 104 103 102 102 103 102 101 101 101 100 102 104 107 112 118 275 104 103 103 103 115 122 122 123 123 124 123
125 123 122 119 124 128 121 111 108 106 107 107 105 106 112 116 114 119 115 106 105 103 101 101 103 104 107 107 108 116 147 220 106 108 105 111 125 132 132 132 131 132 131
132 131 130 130 132 128 123 124 126 122 121 126 118 121 138 124 120 127 99 107 108 106 103 102 106 114 124 127 122 142 195 132 97 92 95 112 137 144 146 145 145 145 144
145 142 138 134 138 133 125 130 133 130 126 123 116 120 111 102 103 104 112 111 110 114 118 114 126 155 180 135 142 185 147 106 106 108 107 124 146 157 160 161 164 164 162
152 150 144 140 142 135 136 138 128 121 123 130 122 122 113 122 123 121 127 132 131 146 137 137 167 142 109 89 105 126 89 94 102 111 121 139 161 175 178 179 180 182 181
160 157 149 150 150 144 138 135 146 140 138 130 130 138 125 114 111 111 121 121 134 129 111 126 122 102 83 104 111 93 115 147 102 100 127 152 178 191 193 195 195 198 199
166 166 158 162 157 157 153 166 147 145 141 131 134 134 134 134 126 124 115 111 128 123 140 141 131 121 136 193 234 160 260 216 167 176 140 161 187 202 206 209 210 212 213
175 171 167 173 167 167 172 172 161 159 150 153 146 139 157 138 126 133 149 151 148 152 117 155 153 175 224 237 242 236 254 246 215 230 203 172 191 206 216 222 222 223 224
178 172 175 179 177 179 183 185 179 178 177 167 149 153 178 177 157 182 156 181 172 170 176 214 219 228 232 231 238 245 235 241 240 239 247 232 200 198 208 221 227 228 229
181 178 183 187 181 184 186 192 193 195 186 191 180 175 189 200 198 217 214 196 181 216 220 213 237 244 248 260 256 256 242 221 234 232 234 231 237 221 203 208 222 230 234
185 182 185 190 186 187 185 191 201 201 211 213 199 197 196 206 205 218 233 218 227 229 241 257 224 265 262 268 258 236 242 233 229 236 242 242 236 240 233 196 207 222 231
188 188 189 191 191 190 193 194 202 206 214 214 204 206 214 211 207 220 220 218 244 248 246 260 270 261 268 264 272 274 262 253 243 243 249 246 240 237 239 234 218 216 218
191 191 193 195 190 196 202 206 202 207 216 213 211 207 217 221 215 224 243 218 236 243 249 254 257 249 253 261 265 267 248 237 237 241 245 253 244 240 237 238 240 241 217
194 195 198 200 198 201 204 212 216 223 225 224 223 207 221 223 223 222 230 239 234 243 247 252 255 267 265 252 265 276 264 228 218 228 231 237 251 248 240 233 234 238 252
196 199 202 203 202 206 206 210 212 210 226 222 219 214 221 225 227 234 229 241 244 251 251 253 250 253 263 258 253 267 281 283 295 209 222 235 245 257 255 246 236 241 245
197 197 202 202 205 206 208 217 219 222 229 231 231 224 220 224 231 231 233 239 246 251 250 251 245 251 256 262 253 248 266 291 285 273 230 227 233 248 268 280 276 255 251
197 195 197 200 204 205 211 216 219 228 234 235 235 228 231 222 227 234 235 238 241 248 252 261 262 255 254 256 259 255 253 256 255 269 278 276 256 265 274 277 282 284 272
194 195 195 195 201 203 206 213 220 231 237 241 237 235 230 227 227 230 235 237 242 246 247 252 252 247 252 256 257 259 259 260 262 258 266 275 275 282 297 310 304 317 334
Height
1542 1539 1537 1539 1540 1541 1541 1542 1543 1543 1544 1544 1545 1545 1546 1546 1547 1548 1549 1549 1550 1551 1552 1553 1554 1554 1555 1556 1557 1558 1559 1560 1561 1562 1563 1563 1564 1565 1566 1567 1569 1569 1569
1544 1543 1542 1542 1543 1544 1545 1546 1546 1547 1547 1548 1548 1549 1549 1550 1551 1551 1552 1553 1554 1554 1555 1556 1557 1558 1559 1559 1560 1561 1562 1563 1564 1565 1565 1566 1567 1568 1569 1570 1571 1571 1572
1546 1546 1545 1546 1546 1547 1548 1549 1549 1550 1550 1551 1552 1552 1553 1553 1554 1555 1556 1556 1557 1558 1559 1559 1560 1561 1562 1562 1563 1564 1565 1566 1567 1568 1569 1571 1570 1570 1571 1572 1573 1573 1574
1549 1549 1549 1548 1549 1550 1551 1552 1552 1553 1554 1554 1555 1556 1556 1557 1558 1558 1559 1560 1560 1561 1562 1563 1563 1564 1565 1566 1566 1567 1568 1569 1570 1571 1574 1574 1574 1573 1574 1574 1575 1576 1577
1551 1552 1550 1551 1552 1553 1554 1555 1555 1556 1557 1558 1558 1559 1560 1560 1561 1562 1562 1563 1564 1564 1565 1566 1567 1567 1568 1569 1569 1570 1571 1571 1572 1575 1576 1576 1576 1575 1576 1577 1577 1578 1579
1554 1555 1553 1554 1555 1556 1557 1558 1559 1559 1560 1561 1561 1562 1563 1563 1564 1565 1566 1566 1567 1567 1568 1569 1570 1570 1571 1571 1572 1573 1573 1574 1576 1578 1578 1579 1578 1578 1578 1579 1579 1580 1581
1556 1557 1556 1556 1558 1559 1560 1561 1562 1562 1563 1564 1564 1565 1566 1566 1567 1568 1568 1569 1570 1570 1571 1572 1572 1573 1573 1574 1575 1575 1576 1576 1580 1580 1580 1581 1580 1580 1580 1581 1582 1582 1583
1558 1559 1558 1559 1560 1561 1562 1563 1564 1565 1566 1566 1567 1568 1568 1569 1570 1570 1571 1572 1573 1573 1574 1575 1575 1576 1576 1577 1577 1577 1578 1579 1582 1582 1582 1582 1581 1582 1582 1583 1583 1584 1585
1560 1561 1562 1563 1562 1563 1564 1565 1566 1567 1568 1569 1570 1570 1571 1571 1572 1573 1574 1575 1575 1576 1577 1577 1578 1578 1579 1579 1579 1580 1580 1581 1584 1585 1585 1584 1583 1584 1584 1585 1585 1586 1586
1561 1562 1564 1565 1566 1567 1567 1567 1568 1569 1570 1571 1572 1573 1573 1574 1575 1576 1576 1577 1578 1579 1579 1580 1580 1581 1581 1581 1581 1582 1583 1583 1587 1587 1587 1586 1585 1585 1586 1586 1587 1587 1588
1562 1564 1566 1567 1568 1570 1571 1570 1571 1572 1572 1573 1574 1575 1576 1578 1579 1579 1579 1579 1580 1581 1581 1582 1582 1583 1583 1583 1584 1584 1585 1587 1588 1588 1588 1586 1586 1586 1587 1587 1588 1588 1589
1564 1566 1567 1568 1570 1571 1572 1572 1574 1575 1575 1576 1577 1578 1579 1579 1580 1581 1580 1581 1582 1582 1583 1584 1584 1585 1586 1587 1586 1586 1588 1588 1589 1589 1588 1587 1587 1587 1588 1588 1588 1589 1589
1565 1567 1568 1569 1570 1572 1573 1574 1575 1576 1577 1578 1578 1579 1580 1581 1582 1583 1584 1584 1584 1584 1586 1585 1587 1588 1588 1588 1588 1589 1589 1590 1590 1590 1589 1588 1588 1588 1588 1589 1589 1589 1590
1566 1568 1569 1570 1571 1572 1574 1576 1576 1578 1578 1580 1579 1580 1582 1583 1583 1584 1585 1586 1586 1587 1587 1588 1588 1588 1589 1589 1589 1589 1590 1590 1591 1590 1589 1588 1588 1588 1588 1589 1589 1589 1590
1567 1568 1569 1570 1572 1572 1573 1575 1577 1578 1580 1580 1580 1581 1582 1584 1584 1585 1585 1586 1587 1588 1588 1588 1589 1589 1589 1589 1590 1590 1590 1590 1590 1590 1590 1588 1588 1588 1588 1589 1589 1589 1589
1567 1569 1570 1571 1572 1573 1574 1575 1577 1579 1579 1581 1581 1582 1582 1584 1585 1586 1586 1586 1588 1588 1589 1589 1589 1589 1589 1589 1589 1589 1589 1589 1589 1589 1590 1588 1588 1588 1588 1588 1588 1588 1588
1567 1569 1570 1571 1572 1573 1575 1576 1578 1579 1580 1581 1582 1582 1583 1584 1585 1585 1586 1587 1588 1588 1588 1589 1589 1589 1589 1589 1589 1589 1589 1588 1589 1588 1588 1588 1588 1587 1587 1587 1587 1587 1587
1567 1568 1570 1572 1572 1573 1574 1576 1578 1579 1580 1581 1582 1583 1583 1584 1584 1584 1586 1587 1587 1588 1588 1588 1589 1589 1589 1589 1588 1588 1588 1587 1587 1587 1587 1587 1587 1587 1586 1585 1585 1585 1585
1566 1567 1569 1571 1573 1574 1575 1576 1577 1578 1579 1581 1581 1582 1583 1583 1583 1584 1585 1586 1586 1587 1587 1588 1588 1588 1588 1588 1588 1587 1587 1586 1586 1586 1585 1585 1585 1584 1584 1583 1583 1583 1583
1565 1566 1568 1570 1572 1573 1574 1575 1577 1578 1579 1580 1580 1581 1582 1582 1583 1583 1584 1584 1586 1586 1586 1586 1586 1586 1586 1586 1586 1586 1585 1585 1584 1584 1584 1583 1583 1582 1582 1582 1581 1581 1581
1563 1565 1566 1568 1570 1571 1573 1575 1576 1577 1578 1579 1579 1580 1580 1581 1582 1582 1583 1583 1583 1584 1584 1584 1584 1584 1584 1584 1584 1584 1583 1583 1582 1582 1581 1581 1581 1580 1580 1579 1579 1579 1579
1561 1562 1564 1566 1568 1570 1572 1573 1574 1576 1577 1577 1578 1578 1579 1579 1580 1581 1580 1581 1581 1581 1581 1582 1582 1582 1583 1582 1582 1582 1581 1582 1580 1579 1579 1579 1579 1578 1578 1577 1577 1576 1576
1558 1560 1562 1564 1566 1568 1569 1571 1572 1573 1574 1575 1576 1576 1577 1577 1578 1578 1578 1579 1579 1579 1579 1579 1579 1579 1580 1580 1580 1581 1580 1579 1578 1578 1577 1577 1576 1576 1576 1576 1575 1574 1574
1555 1557 1559 1562 1564 1565 1567 1569 1570 1571 1572 1573 1574 1575 1575 1575 1575 1575 1576 1576 1576 1576 1576 1576 1577 1577 1577 1578 1578 1577 1578 1577 1577 1576 1576 1575 1574 1573 1573 1573 1573 1572 1571
1552 1555 1557 1559 1561 1562 1564 1565 1567 1568 1570 1571 1571 1572 1572 1573 1572 1573 1573 1573 1573 1573 1573 1573 1574 1574 1574 1575 1575 1575 1574 1574 1574 1574 1573 1573 1572 1571 1570 1570 1570 1569 1569
1549 1552 1553 1555 1557 1559 1561 1563 1564 1566 1567 1568 1568 1569 1569 1570 1570 1570 1570 1570 1570 1570 1570 1570 1570 1570 1571 1571 1571 1571 1571 1571 1571 1571 1570 1569 1569 1568 1568 1567 1567 1566 1566